Location: Unspecified
(42.1900°N, 71.3291°W)
Time: 17:35:46
(UTC-04:00)

CZ-3 Stage 3 - Visible Passes

Search period start: 28 March 2017 00:00
Search period end: 07 April 2017 00:00
Orbit: 398 x 34802 km, 30.6° (Epoch: 27 March)

Date Brightness Start Highest point End Pass type
(mag) Time Alt. Az. Time Alt. Az. Time Alt. Az.
28 Mar 9.5 04:51:37 10° WNW 05:55:31 14° WNW 07:30:16 10° WNW visible
29 Mar 8.2 00:11:45 10° W 02:17:43 56° WSW 09:02:12 10° WSW visible
29 Mar 7.6 20:27:25 10° SW 21:34:58 66° SE 05:49:49 10° SSE visible
30 Mar 7.1 16:59:15 10° SE 23:44:55 37° E 01:57:16 10° ESE visible
31 Mar 9.5 04:41:28 10° WNW 05:45:07 14° WNW 07:19:38 10° WNW visible
01 Apr 8.2 00:02:40 10° W 02:07:25 56° WSW 08:50:39 10° WSW visible
01 Apr 7.6 20:18:20 10° SW 21:19:27 66° SE 05:40:26 10° SSE visible
02 Apr 7.1 16:49:40 10° SE 23:35:23 37° E 01:47:49 10° ESE visible
03 Apr 9.5 04:31:21 10° WNW 05:34:39 14° WNW 07:08:49 10° WNW visible
03 Apr 8.3 23:53:34 10° W 01:57:03 56° WSW 08:38:53 10° WSW visible
04 Apr 7.7 20:09:14 10° SW 21:06:05 66° SE 05:31:00 10° SSE visible
05 Apr 7.1 16:40:05 10° SE 23:25:47 36° ESE 01:38:18 10° ESE visible
06 Apr 9.5 04:21:15 10° WNW 05:24:09 14° WNW 06:57:49 10° WNW visible
